This demonstration page uses our WeatherBlox Daily Observations layout. Learn more.

Left ArrowRight Arrow

Hourly Observations for May 28, 2021

Temp ( °F °C ) Dew Point ( °F °C ) Humidity (%) Winds ( mph kmh ) Pressure ( in mb ) Visibility ( mi km ) Precip ( " mm )
12:53 am 00:53 Partly Cloudy 73 22.8 66 18.9 79 79 WSW 3 6 29.99 1016 10 16 0.00 0.00
1:53 am 01:53 Mostly Clear 72 22.2 66 18.9 82 82 Calm 29.98 1015 10 16 0.00 0.00
2:53 am 02:53 Clear 71 21.7 66 18.9 84 84 SSW 3 6 29.97 1015 10 16 0.00 0.00
3:53 am 03:53 Clear 70 21.1 66 18.9 87 87 W 3 6 29.96 1015 10 16 0.00 0.00
4:53 am 04:53 Clear 70 21.1 67 19.4 90 90 SSW 5 7 29.95 1014 10 16 0.00 0.00
5:53 am 05:53 Clear 69 20.6 66 18.9 90 90 Calm 29.94 1014 10 16 0.00 0.00
6:46 am 06:46 Partly Cloudy 69 20.6 66 18.9 90 90 SW 3 6 29.96 1014 10 16 0.00 0.00
6:53 am 06:53 Partly Cloudy 69 20.6 66 18.9 90 90 W 3 6 29.96 1014 10 16 0.00 0.00
7:00 am 07:00 Mostly Cloudy 69 20.6 66 18.9 90 90 SW 3 6 29.96 1014 10 16 0.00 0.00
7:53 am 07:53 Mostly Cloudy 69 20.6 67 19.4 93 93 SSW 7 11 29.96 1015 10 16 0.00 0.00
8:53 am 08:53 Cloudy 72 22.2 68 20 87 87 SSW 8 13 29.96 1015 10 16 0.00 0.00
9:53 am 09:53 Partly Cloudy 74 23.3 69 20.6 85 85 SSW 9 15 29.97 1015 10 16 0.00 0.00
10:53 am 10:53 Sunny 78 25.6 69 20.6 74 74 SW 8 13 29.95 1014 10 16 0.00 0.00
11:53 am 11:53 Mostly Sunny 81 27.2 68 20 65 65 SW 8 13 29.93 1014 10 16 0.00 0.00
12:53 pm 12:53 Mostly Sunny 83 28.3 69 20.6 63 63 SW 12 19 29.93 1013 10 16 0.00 0.00
1:53 pm 13:53 Mostly Cloudy 83 28.3 67 19.4 59 59 S 12 19 29.89 1012 10 16 0.00 0.00
2:41 pm 14:41 Mostly Cloudy with Thunderstorms 80 26.7 65 18.3 60 60 WNW 13 20 29.87 1011 10 16 0.00 0.00
2:53 pm 14:53 Cloudy 77 25 63 17.2 62 62 NW 9 15 29.88 1012 10 16 0.00 0.00
3:53 pm 15:53 Mostly Cloudy 80 26.7 68 20 67 67 SW 6 9 29.86 1011 10 16 0.00 0.00
4:53 pm 16:53 Mostly Sunny 83 28.3 66 18.9 57 57 SW 10 17 29.82 1010 10 16 0.00 0.00
5:53 pm 17:53 Mostly Cloudy 84 28.9 65 18.3 53 53 SW 10 17 29.80 1009 10 16 0.00 0.00
6:53 pm 18:53 Mostly Cloudy 82 27.8 65 18.3 56 56 SW 7 11 29.79 1009 10 16 0.00 0.00
7:53 pm 19:53 Cloudy 81 27.2 65 18.3 58 58 SSW 6 9 29.80 1009 10 16 0.00 0.00
8:29 pm 20:29 Cloudy with Nearby Thunderstorms 77 25 64 17.8 64 64 W 23 37 29.81 1010 5 8 0.04 1.02
8:53 pm 20:53 Cloudy with Thunderstorms 69 20.6 66 18.9 90 90 WSW 7 11 29.83 1010 10 16 0.13 3.30
9:09 pm 21:09 Mostly Cloudy with Light Rain 69 20.6 66 18.9 90 90 WSW 6 9 29.84 1010 10 16 0.02 0.51
9:53 pm 21:53 Mostly Clear with Light Rain 69 20.6 67 19.4 93 93 SSW 6 9 29.83 1010 10 16 0.04 1.02
10:53 pm 22:53 Clear 68 20 67 19.4 96 96 SSW 5 7 29.83 1010 10 16 0.00 0.00
11:05 pm 23:05 Mostly Clear 68 20 67 19.4 96 96 SW 5 7 29.84 1010 10 16 0.00 0.00
11:53 pm 23:53 Partly Cloudy 68 20 66 18.9 93 93 SW 6 9 29.85 1011 10 16 0.00 0.00

Powered by AerisWeather